Wind_Speed
2 5 7 8 8 6 3 2 2 1 1 1 1 3 4 6 7 7 8 7 6 5 4 3 3 4 3 3 4 3 3 4 4 3 4 5 6 6 6 8 8 8 8 8 7 7 7 6 6 6 6 7 6 6 6 6 7 7 6 6 6 5 6 7 6 6 8 9 9 9 9 8 8 8 8 8 8 9 9 7 6 5 6 7 8
2 3 5 7 8 5 2 2 1 2 2 0 3 5 6 7 7 8 9 7 5 4 3 3 4 4 4 4 5 4 4 2 3 4 4 4 5 6 7 8 8 8 8 8 8 8 7 7 6 6 7 6 6 5 5 6 7 7 7 6 6 6 6 7 7 7 8 10 11 11 10 9 10 10 9 9 10 9 9 8 6 6 6 6 7
3 3 5 6 8 5 2 3 2 2 2 0 4 5 6 7 7 9 9 6 4 4 3 3 4 4 4 5 5 4 2 1 2 3 4 5 6 7 7 8 7 8 8 8 8 8 8 7 7 8 8 7 7 7 7 7 8 8 8 8 8 8 8 8 8 8 9 11 12 12 12 12 12 11 10 10 10 10 10 9 8 8 8 7 6
5 4 5 6 7 4 2 4 2 2 2 1 3 5 6 6 8 9 8 5 4 4 3 4 4 4 4 4 4 4 3 3 4 4 4 6 6 7 7 7 7 8 8 8 9 8 8 9 9 9 10 9 10 10 9 10 10 11 12 12 11 11 11 10 11 10 10 12 13 13 14 14 14 12 11 11 11 12 14 13 11 11 11 10 8
5 5 5 5 6 3 2 4 3 3 3 2 3 4 5 6 8 8 5 3 4 4 4 5 4 4 5 5 4 4 4 4 4 4 5 6 6 7 7 8 8 9 9 9 10 10 10 11 11 11 11 12 13 13 13 13 13 14 15 15 14 15 15 14 14 13 13 14 14 14 14 14 14 13 12 13 13 12 13 14 13 13 13 12 11
7 6 6 5 5 3 3 5 4 4 4 3 4 3 4 6 8 6 3 3 4 4 5 6 6 6 6 6 5 4 4 4 4 4 5 6 8 8 9 9 9 10 11 10 11 11 12 12 13 13 14 15 15 16 16 16 16 15 16 16 15 16 16 15 15 15 14 14 15 15 15 15 16 15 14 15 15 14 13 13 13 13 15 14 12
9 7 6 6 5 3 3 6 5 4 4 4 4 2 3 6 6 3 2 3 4 5 5 6 7 6 6 5 4 4 4 4 4 5 7 9 10 10 10 10 10 11 12 12 12 12 13 14 15 16 17 17 17 17 17 17 16 15 16 16 15 15 15 14 14 14 15 15 15 17 17 17 18 18 17 17 17 17 17 15 14 13 15 16 16
10 9 8 7 5 4 4 6 5 5 5 3 2 1 3 5 3 2 3 4 5 5 5 6 7 6 6 5 5 5 5 4 6 8 10 11 11 11 11 11 11 12 12 12 13 13 14 15 16 17 18 18 18 17 17 17 16 15 15 15 15 15 15 14 14 14 15 15 15 16 18 19 20 20 19 19 19 20 20 18 16 14 12 14 18
12 11 9 8 7 5 5 7 6 6 5 4 2 2 2 3 2 3 4 4 5 5 6 7 7 6 6 5 5 5 5 5 7 10 12 13 12 12 12 12 13 13 13 13 14 14 14 15 16 17 18 18 18 18 17 17 16 15 15 15 16 17 16 16 15 15 15 16 15 16 18 20 21 21 20 21 20 20 21 18 16 15 12 11 15
14 12 10 10 8 6 6 7 8 7 6 5 4 2 2 2 2 3 4 5 5 6 6 7 7 6 6 5 5 5 5 6 9 10 12 13 13 12 12 12 13 13 13 14 14 14 14 14 16 17 17 17 17 17 17 17 17 17 16 16 17 18 19 19 18 16 16 17 17 16 18 20 21 20 20 19 18 19 20 19 16 15 13 11 13
15 13 12 11 10 7 7 8 8 8 7 6 5 3 1 1 2 3 3 4 5 6 7 7 7 7 6 5 5 5 5 7 9 10 11 12 13 13 12 12 12 12 13 13 13 13 14 14 15 16 17 17 17 17 17 17 17 17 17 17 17 18 19 19 20 19 17 18 18 18 18 19 19 18 18 17 17 18 19 18 16 14 14 12 13
17 14 13 13 11 9 8 9 10 10 9 8 6 4 2 1 2 3 3 4 5 6 7 7 7 7 7 6 5 5 4 6 9 10 10 11 12 13 12 11 11 11 11 12 12 13 13 13 14 15 16 16 17 17 16 16 16 17 17 17 17 17 18 19 19 20 18 18 18 18 18 18 16 16 17 16 17 17 16 16 15 14 13 13 13
18 16 15 14 13 11 9 10 11 11 10 10 8 5 3 2 2 3 4 4 5 6 6 6 6 7 7 6 5 5 4 6 8 9 9 9 11 12 11 10 10 10 10 11 11 12 12 12 13 14 14 15 16 16 16 16 16 16 16 16 16 17 18 18 19 19 18 18 17 17 17 16 15 16 16 15 15 15 13 13 13 13 14 15 16
19 18 17 16 15 13 10 11 13 12 12 11 9 6 5 3 3 4 5 5 6 6 5 5 6 7 7 6 6 5 4 6 7 8 9 9 9 11 10 9 9 9 9 9 10 11 12 12 13 13 13 14 15 16 16 15 15 14 14 14 15 16 17 18 18 18 18 17 16 16 16 15 15 14 14 14 13 11 12 12 12 15 16 16 17
21 20 19 18 17 15 12 12 14 14 14 13 10 9 7 5 4 6 6 6 6 6 6 5 5 6 7 7 6 5 5 5 6 7 8 8 9 10 9 8 8 8 8 9 10 11 12 12 12 12 13 13 13 15 15 14 13 12 12 13 14 15 16 17 18 17 17 17 16 15 15 14 14 13 12 13 12 11 13 14 14 15 14 11 10
22 23 22 20 19 17 13 13 15 15 15 14 12 11 9 6 5 6 7 7 7 7 6 5 5 6 6 7 6 5 5 5 6 7 7 8 9 9 9 8 8 8 8 8 9 11 12 12 11 11 12 12 13 13 13 12 11 10 11 12 13 14 15 16 17 16 16 16 15 15 14 14 14 13 13 14 13 13 13 11 12 14 11 8 7
23 24 24 22 20 18 15 14 16 17 17 16 14 13 10 7 7 7 8 8 7 7 6 5 5 5 6 7 6 5 5 5 5 6 7 7 9 9 8 7 7 8 8 9 9 10 11 11 12 11 11 11 11 11 11 11 11 10 11 12 12 14 15 15 15 15 15 16 16 15 15 14 14 14 15 15 15 15 14 12 14 14 12 11 10
25 24 24 23 22 20 17 16 17 18 18 17 16 14 11 9 9 8 8 8 8 7 6 5 5 5 6 6 6 6 6 5 5 6 6 7 9 9 6 5 7 8 8 9 9 9 9 10 10 11 10 10 10 10 10 10 10 9 9 10 11 12 13 14 14 15 15 16 16 16 15 14 14 15 16 15 15 16 16 16 17 14 11 12 12
29 25 24 24 23 21 18 17 18 19 19 18 17 15 12 11 10 10 10 9 8 8 7 6 6 5 5 6 6 6 6 6 6 6 6 6 8 9 6 4 7 8 7 8 9 8 8 8 8 9 9 9 9 9 9 10 10 9 8 7 9 11 12 13 13 13 14 16 16 17 17 16 17 17 16 16 17 17 17 18 18 16 12 11 12
31 27 24 24 24 23 19 19 19 20 19 19 18 15 13 13 12 12 11 11 10 9 8 8 7 6 6 6 6 6 6 6 6 5 6 5 6 9 8 5 6 8 8 8 8 8 7 7 7 7 7 7 7 8 9 9 9 9 8 6 7 9 11 11 12 12 14 16 17 17 17 17 17 17 17 17 17 17 17 18 18 17 15 12 12
32 28 26 25 25 24 21 20 20 20 20 20 18 15 14 15 14 13 13 13 12 11 10 9 8 7 7 7 6 6 6 6 6 5 5 5 5 8 9 7 7 7 8 7 7 7 7 7 6 6 6 6 6 7 7 7 8 8 8 7 8 9 10 11 11 13 14 13 12 12 12 12 14 15 16 17 17 16 17 17 17 17 17 16 15
33 29 26 26 26 25 22 20 20 20 21 20 19 17 15 15 15 15 15 14 13 12 11 11 10 9 9 8 7 7 7 6 6 5 5 5 5 6 8 9 9 9 8 7 7 7 8 7 6 5 5 5 5 5 6 6 7 7 7 8 9 9 10 10 10 9 9 8 8 10 11 10 11 13 14 15 16 16 16 16 15 16 16 16 16
33 30 27 26 26 25 23 22 20 21 22 22 19 18 17 16 17 17 17 16 14 13 13 12 11 11 10 10 9 8 8 7 6 6 5 6 6 6 7 9 10 10 8 7 8 9 8 7 6 5 5 4 4 4 5 5 5 6 7 8 8 8 9 9 8 7 7 8 9 11 12 11 10 12 13 14 14 14 14 14 14 15 16 16 16
32 31 28 26 26 26 24 22 21 22 23 23 20 19 18 18 18 19 19 18 16 16 15 14 14 13 12 12 11 10 9 8 7 6 6 6 6 7 7 8 10 10 9 8 9 9 8 7 6 5 4 4 3 3 4 4 4 5 6 7 7 8 8 7 7 7 8 8 8 10 11 12 11 11 12 12 12 13 13 13 13 15 14 14 14
31 32 29 27 26 26 24 22 21 22 24 24 22 21 20 20 21 22 21 20 19 18 17 16 16 15 14 14 14 12 11 10 8 7 7 6 6 7 8 8 9 10 11 10 10 9 8 7 7 5 4 3 2 2 3 3 4 4 5 6 6 7 6 6 6 7 7 7 8 9 10 11 11 11 11 11 12 13 13 13 13 14 13 13 13
28 31 31 28 26 26 25 23 23 23 24 24 24 22 22 23 23 23 22 22 21 20 19 18 17 16 16 15 15 15 13 11 10 9 8 7 8 8 8 9 10 10 11 11 10 9 9 8 7 6 4 3 2 2 2 2 3 4 4 5 4 4 4 5 6 6 6 7 8 9 9 10 10 10 11 12 12 12 12 12 12 12 12 12 11
26 30 32 31 28 26 25 24 24 24 25 25 24 23 23 24 24 24 24 24 23 21 20 19 18 18 17 16 16 16 15 13 12 11 10 9 9 9 9 10 10 10 11 10 10 9 9 8 8 6 5 4 2 1 1 2 2 3 4 3 3 3 4 5 7 7 7 7 7 8 9 10 10 10 11 11 11 10 10 12 11 10 11 11 8
25 29 32 32 29 27 26 25 24 25 26 26 25 24 24 25 26 26 26 25 24 23 22 21 20 19 18 17 17 17 16 15 14 12 10 10 10 10 10 10 10 10 11 11 11 10 9 8 8 7 6 5 3 1 1 1 1 2 2 2 3 3 5 6 7 8 8 7 7 8 9 9 9 9 9 9 9 10 10 11 10 10 11 10 7
25 28 31 31 30 28 27 27 26 25 26 27 26 25 25 26 27 26 26 26 25 24 23 22 21 20 18 17 18 17 17 16 14 12 11 11 10 10 10 10 10 11 11 11 10 10 10 9 8 7 6 5 3 3 2 2 2 2 2 2 2 3 4 5 6 7 7 7 7 7 8 7 7 8 8 7 8 9 10 10 10 11 11 8 6
24 27 29 30 30 29 28 27 27 26 26 27 27 25 26 28 29 27 26 27 26 24 23 21 20 19 18 17 18 18 17 16 15 14 13 12 11 11 11 11 11 12 12 11 11 11 10 9 8 7 7 6 5 6 6 4 3 3 3 3 2 3 3 4 5 6 6 6 6 6 7 6 6 6 6 6 7 8 8 9 10 10 10 8 6
25 27 28 30 30 31 30 28 28 27 26 27 27 26 27 30 32 30 28 27 25 23 23 22 20 19 18 17 17 19 19 18 17 16 14 12 12 12 12 12 13 13 12 12 12 12 11 10 10 9 9 8 8 8 8 6 6 5 4 4 4 3 3 4 5 6 5 5 5 6 6 5 5 5 5 5 6 7 7 8 9 9 9 8 7
26 27 28 29 30 31 30 30 29 28 27 27 27 27 27 29 32 32 30 28 25 24 24 23 22 22 21 19 19 20 21 20 19 17 14 13 13 13 13 13 13 13 13 14 14 13 12 12 11 11 10 10 10 10 9 8 7 6 5 5 5 4 4 5 5 5 4 4 4 5 4 4 4 4 4 5 5 6 6 6 7 8 8 7 8
28 29 29 29 30 31 31 31 31 30 29 28 28 28 28 27 29 32 33 32 29 26 26 26 25 25 25 24 23 23 21 20 19 18 15 15 15 14 14 14 14 14 15 16 15 15 14 13 12 12 12 11 11 11 10 9 8 8 7 7 7 6 5 5 5 4 4 3 4 4 4 3 3 3 4 4 5 5 5 5 6 6 7 7 7
28 30 31 31 31 31 31 31 32 31 30 29 29 29 29 28 28 29 32 34 33 30 29 29 28 28 27 26 26 25 22 20 19 19 17 17 17 16 16 16 16 17 18 17 17 16 15 14 14 13 13 12 13 13 12 11 10 10 9 9 8 7 6 5 5 5 4 4 3 3 3 3 3 2 2 3 3 4 4 4 5 5 5 5 6
29 30 32 32 32 31 31 31 32 32 31 30 30 30 30 30 29 28 29 33 35 33 31 31 30 29 29 28 28 27 25 22 21 21 20 19 19 18 18 19 19 20 19 19 18 18 17 16 15 15 14 15 15 14 13 13 12 11 11 11 10 8 7 6 5 5 4 4 4 3 3 3 2 2 1 2 2 3 3 4 4 4 4 5 5
31 31 32 33 33 34 33 32 32 32 31 31 32 32 32 32 32 30 28 30 33 34 33 32 31 30 29 29 29 28 27 25 24 23 22 21 20 21 21 21 21 21 20 19 19 19 19 18 17 16 16 17 17 16 15 14 14 13 13 12 11 10 9 8 6 5 5 5 4 4 3 3 2 2 1 1 2 2 2 3 3 4 4 5 5
33 34 34 34 33 34 35 35 34 34 33 32 33 33 34 34 35 34 31 28 31 33 32 31 32 32 31 30 30 30 28 27 26 25 24 23 23 23 23 22 22 21 20 20 19 19 20 20 20 19 19 19 19 18 17 16 16 15 15 14 12 12 11 9 8 6 6 5 5 4 4 4 3 2 2 2 2 2 3 3 3 4 4 5 5
31 35 38 37 35 34 35 35 35 35 36 35 34 34 35 35 36 37 34 30 30 33 30 28 31 35 34 31 31 31 30 30 30 29 28 28 28 27 27 26 24 23 22 21 21 20 21 21 21 20 20 20 20 20 19 18 18 17 16 15 15 14 12 11 9 8 7 6 6 5 5 5 4 4 3 3 3 3 4 3 3 4 5 5 5
29 33 38 40 39 38 36 36 35 35 37 38 38 36 36 36 35 38 38 34 33 34 32 28 30 35 36 33 32 33 33 34 34 34 33 33 32 31 30 29 28 26 25 24 23 22 22 22 22 22 22 22 22 21 20 19 19 19 18 17 17 16 14 12 11 10 8 7 7 6 6 6 6 5 4 4 4 4 4 4 3 4 4 5 6
29 30 34 38 40 41 40 39 38 36 36 38 40 40 40 38 36 37 38 37 35 36 36 33 31 34 37 37 35 35 36 36 36 36 36 36 35 33 33 32 30 28 28 26 25 24 24 23 23 23 23 23 23 23 22 21 21 20 20 19 19 17 16 14 13 12 10 9 8 7 7 7 7 6 5 5 5 5 5 4 4 4 4 5 6
30 30 31 33 35 38 42 43 42 40 38 37 39 41 42 42 39 38 38 39 38 39 40 39 35 35 38 40 37 36 37 38 38 37 37 37 36 35 33 32 31 30 29 28 27 27 26 25 24 24 23 24 24 24 23 23 23 22 21 21 20 19 18 16 15 14 12 10 9 9 9 8 8 7 7 6 6 6 6 5 5 5 5 5 5
34 32 31 30 31 35 41 43 42 42 42 40 39 41 43 44 43 40 39 39 40 40 42 42 40 38 40 41 39 36 37 39 39 39 38 38 37 35 34 33 31 31 30 29 28 28 28 27 26 26 25 24 24 24 23 23 23 23 22 22 22 21 20 19 17 16 14 12 11 10 10 10 9 8 8 7 7 7 7 6 6 5 5 6 6
36 34 33 31 30 32 36 38 40 42 45 45 43 42 43 44 45 44 41 40 41 42 42 43 42 41 42 42 40 38 38 39 41 41 41 40 39 37 35 34 32 32 31 30 30 30 30 29 28 28 27 26 24 23 22 22 23 23 23 23 23 22 22 21 20 18 16 14 13 11 11 11 10 10 9 8 8 8 7 7 6 6 6 6 7
38 36 35 33 32 31 32 35 38 41 44 45 45 44 44 44 44 45 44 42 42 43 43 43 42 42 43 43 42 40 40 41 42 43 43 42 42 40 38 36 34 33 33 32 31 32 31 30 29 29 28 28 26 25 23 22 22 23 23 24 24 24 23 23 22 20 18 17 15 13 12 12 12 11 10 9 9 9 9 8 7 7 6 6 7
38 38 37 35 33 31 31 33 35 37 39 41 43 44 45 45 44 45 45 45 44 44 44 43 43 43 44 45 45 43 42 42 43 44 45 44 44 43 41 39 37 36 35 34 33 34 33 32 31 30 31 31 30 28 25 23 23 23 24 24 25 24 23 24 23 22 21 19 17 15 14 13 13 12 11 11 10 10 10 9 8 7 7 7 8
37 39 39 37 35 33 32 32 34 35 36 38 40 42 44 46 45 44 44 46 46 46 44 44 44 44 43 44 46 45 44 44 44 45 45 46 45 44 43 42 41 40 38 37 36 36 35 33 33 33 33 33 32 30 27 26 26 24 24 25 25 24 24 25 25 25 23 21 19 17 16 15 14 14 12 12 12 11 11 10 9 9 8 8 8
35 38 40 39 37 35 33 33 34 35 36 37 39 39 42 44 44 41 41 43 46 46 45 45 46 44 41 42 46 47 45 45 45 46 45 46 46 45 44 44 43 42 41 40 39 38 37 35 35 36 35 34 33 31 29 29 29 27 25 25 25 25 25 27 27 27 25 23 21 20 18 16 16 15 14 13 13 13 12 11 11 10 10 9 9
34 36 39 39 38 37 35 35 35 35 36 37 38 38 39 41 41 38 37 39 42 45 46 47 48 47 45 44 47 49 47 46 46 46 46 46 46 46 45 45 45 44 43 43 42 41 39 38 38 38 36 35 34 33 32 32 32 30 28 28 27 26 26 27 27 27 25 24 22 22 20 18 18 17 16 15 14 14 13 12 12 11 11 10 10
34 36 38 39 39 38 37 36 35 35 36 37 38 38 38 39 39 37 36 36 38 42 45 47 49 50 47 46 47 49 49 48 47 47 46 45 45 45 45 45 45 45 45 44 43 42 41 41 40 39 38 37 37 36 35 35 35 34 32 31 30 28 26 26 27 26 25 24 24 23 22 20 20 19 17 16 16 15 14 14 13 12 12 11 11
33 35 37 39 39 38 37 36 36 36 37 37 36 36 37 38 39 38 37 37 38 39 41 44 46 47 47 47 47 49 50 50 49 49 48 46 44 44 44 44 45 46 46 45 44 43 43 43 42 42 41 40 40 40 39 38 38 38 36 35 33 29 26 26 27 26 25 25 25 25 24 23 22 20 19 18 18 17 16 15 14 13 13 12 12
31 32 34 36 37 36 37 37 37 38 37 36 35 36 39 41 41 41 39 38 38 39 39 40 41 43 45 47 48 49 51 51 51 50 48 47 45 44 44 44 44 44 45 45 45 44 44 44 44 43 43 43 43 43 43 43 42 41 39 37 34 31 28 27 28 27 26 26 27 27 26 25 24 22 21 20 19 18 17 16 15 14 14 13 13
Wind_Direction
21 20 16 9 9 30 84 148 169 204 212 200 274 311 319 326 336 346 352 359 11 28 41 45 38 39 49 73 84 79 70 57 42 20 355 349 357 15 39 48 51 55 58 65 69 68 67 60 58 60 62 62 57 56 52 46 47 48 47 45 32 29 37 30 32 40 32 32 35 28 21 19 15 16 19 18 16 11 10 19 21 11 25 27 1
323 359 5 2 2 23 105 164 200 214 184 141 311 308 319 333 345 354 356 4 25 43 53 49 48 59 66 82 92 91 90 69 23 22 21 18 33 52 61 59 57 60 61 62 64 62 61 59 59 62 61 62 63 62 64 63 59 56 56 60 53 44 53 59 57 57 55 50 46 40 35 32 30 26 26 30 31 26 20 22 26 18 23 33 11
284 326 347 352 354 13 125 184 227 180 162 345 331 324 331 345 350 352 355 7 35 51 67 64 62 75 77 79 88 87 83 60 38 48 53 55 63 64 65 63 62 64 64 63 63 61 61 63 64 66 66 67 70 68 69 69 69 68 66 66 66 62 66 81 79 65 60 60 57 52 48 46 43 38 40 45 44 42 39 37 42 38 29 30 20
267 300 325 338 345 3 143 190 216 162 166 268 320 330 338 344 340 341 351 13 42 52 75 83 76 82 82 76 76 75 74 69 61 66 71 73 71 66 65 68 69 71 69 68 70 70 72 74 74 75 77 77 75 72 73 75 75 76 72 67 69 70 69 77 84 77 69 65 63 63 61 58 56 56 59 62 58 52 45 41 47 49 41 40 39
256 282 303 320 336 347 161 189 211 179 176 245 295 318 331 336 331 336 355 26 51 59 76 90 84 80 88 90 82 75 70 61 51 56 67 74 76 76 76 75 74 77 76 76 80 82 84 84 84 84 84 83 81 78 77 79 80 80 78 70 68 72 74 75 79 79 75 69 64 65 67 66 62 60 64 66 64 60 47 36 42 51 47 44 44
249 268 284 300 320 324 180 185 206 192 189 244 278 302 323 331 333 341 17 53 65 72 77 89 92 88 93 96 87 73 58 47 49 61 74 81 83 84 83 80 81 84 84 86 89 90 90 89 88 88 86 84 84 84 81 79 78 79 82 79 75 75 74 73 73 73 72 68 63 61 63 67 64 58 60 63 60 64 59 38 33 46 45 40 41
246 261 270 280 295 292 192 184 205 203 204 252 268 281 326 336 342 357 66 86 85 87 87 95 101 100 98 93 84 75 62 57 70 81 88 92 91 89 86 84 87 89 90 93 94 94 95 93 90 89 86 82 80 80 81 80 78 78 82 84 83 78 72 67 67 67 67 65 62 59 57 60 62 57 59 62 58 59 62 46 32 37 35 29 35
243 255 259 266 277 267 202 185 201 208 203 235 251 253 329 349 8 58 106 109 107 106 104 104 104 102 97 91 85 80 75 79 94 99 99 97 94 93 91 91 93 93 95 96 97 97 97 95 92 89 85 82 77 74 74 77 78 78 80 85 87 83 75 67 63 63 65 62 58 57 55 54 56 54 53 56 54 52 53 46 34 34 29 20 26
238 249 252 257 265 257 212 187 196 208 200 202 222 248 332 7 55 109 119 121 121 118 115 109 104 101 97 93 88 81 82 95 103 106 105 101 98 96 96 97 98 99 99 99 98 98 95 93 91 87 83 81 78 74 72 73 75 74 76 82 87 86 81 75 67 62 62 62 56 53 51 49 49 47 44 44 45 45 45 41 33 31 31 21 20
235 244 244 247 253 247 216 192 192 201 195 190 206 242 329 24 91 122 126 132 131 123 119 114 111 110 105 99 91 84 90 100 102 105 108 106 103 99 97 99 101 102 101 99 98 97 95 92 91 88 84 80 77 75 73 71 72 72 73 76 81 83 82 79 74 66 61 61 58 53 49 46 44 41 38 36 38 40 37 32 30 28 29 26 17
235 241 237 239 245 238 215 194 189 194 194 192 202 222 286 54 119 132 136 141 136 128 123 119 119 120 114 103 95 91 98 103 102 103 106 107 106 102 100 101 102 103 102 98 96 94 94 94 93 90 87 83 78 75 72 69 69 70 71 72 74 77 77 77 76 71 64 59 58 55 50 46 41 37 35 31 32 37 31 22 26 29 27 27 19
233 237 232 234 240 234 215 194 186 192 195 192 197 208 212 153 144 150 152 148 140 131 125 123 125 122 116 110 103 103 106 104 103 104 105 108 108 104 102 102 102 104 103 100 97 94 93 95 95 93 91 88 83 77 73 71 69 68 68 68 69 71 72 71 71 69 66 60 55 54 50 45 39 33 32 28 27 32 28 17 23 29 26 27 23
231 233 229 233 237 234 222 198 187 192 196 192 196 207 211 187 166 164 164 157 145 136 130 129 127 123 121 119 114 114 114 107 106 107 107 109 108 105 104 105 106 106 105 104 103 101 100 100 99 98 95 93 89 83 76 71 68 65 64 63 64 66 67 67 66 64 64 60 54 50 47 42 38 31 26 26 24 27 26 18 23 34 30 26 24
229 229 226 230 236 236 225 202 189 190 195 195 196 204 212 204 180 170 168 163 151 141 138 137 135 133 131 129 125 124 120 113 111 111 111 112 110 107 107 106 107 108 108 109 110 110 110 109 106 104 99 95 92 87 80 71 65 62 61 61 62 64 64 63 62 58 57 56 51 47 43 37 35 30 25 26 24 28 37 37 41 42 30 21 19
229 229 225 228 235 235 223 204 193 190 194 197 197 201 212 211 188 175 171 166 156 148 149 149 148 144 139 136 133 128 121 117 117 115 115 115 112 109 109 109 110 111 113 115 117 116 114 111 110 107 102 97 92 87 84 78 70 65 63 63 62 62 60 59 57 53 51 49 46 43 39 34 31 29 29 30 28 35 43 41 41 38 23 16 19
228 228 226 228 233 234 223 208 198 192 194 197 195 201 214 213 192 179 172 169 162 155 156 158 156 153 147 142 138 132 127 125 124 120 119 121 117 110 109 112 115 117 120 123 126 126 122 118 114 108 104 101 94 88 86 83 78 70 66 65 62 58 56 54 52 49 45 43 40 36 33 33 30 31 35 36 36 43 45 40 43 40 28 29 39
225 226 226 228 231 232 224 212 204 197 195 196 195 202 214 210 195 185 175 172 169 162 160 161 160 159 157 149 143 140 137 134 132 127 125 128 122 113 111 116 120 126 130 130 131 131 127 124 122 117 111 106 99 92 87 84 82 75 67 65 61 55 52 50 48 45 41 36 32 30 32 33 31 34 40 39 39 46 52 57 57 48 32 30 36
223 224 225 225 229 232 225 215 209 202 197 195 196 204 212 206 196 188 179 175 175 172 172 174 170 169 168 161 156 155 150 145 143 134 131 134 126 117 117 124 125 130 135 134 134 133 129 127 126 123 118 110 102 94 85 81 83 79 71 66 62 56 52 49 44 39 34 30 26 26 30 32 33 37 41 41 40 42 48 56 59 52 34 26 30
223 224 223 223 227 230 226 217 212 205 198 195 196 202 209 207 198 192 185 180 181 184 185 187 187 183 180 174 168 166 162 155 150 141 136 139 131 125 131 144 136 135 138 139 139 136 133 132 130 126 121 112 102 92 81 76 79 83 82 72 62 56 52 50 45 37 31 26 23 25 28 30 34 38 37 37 38 38 41 48 54 55 46 28 24
225 225 226 224 226 229 227 220 214 206 197 195 194 195 203 208 203 195 189 184 185 190 191 193 197 195 191 188 179 176 174 165 159 151 144 144 139 135 143 159 152 143 144 146 146 143 143 143 140 134 126 113 103 90 79 71 69 76 87 83 65 55 52 50 44 35 30 26 23 24 26 27 31 33 33 33 34 34 37 41 45 50 51 41 34
223 225 226 225 225 228 228 223 217 208 197 194 194 192 198 208 207 197 191 189 191 196 196 198 204 203 199 199 194 191 190 178 170 163 153 152 152 146 150 163 165 154 150 149 148 153 159 158 154 147 134 120 106 89 78 69 61 63 72 72 61 52 49 48 38 29 29 28 23 23 24 23 26 28 29 30 29 30 34 35 37 42 45 41 39
222 222 223 224 224 226 227 224 218 208 197 194 195 192 195 205 209 202 195 194 197 200 200 201 204 205 206 206 204 203 202 194 184 177 166 163 164 160 163 170 168 160 157 156 159 170 176 170 167 164 148 128 109 90 76 64 56 54 55 57 54 46 46 48 41 33 34 30 24 25 29 30 27 25 27 29 26 26 30 32 33 37 39 36 34
221 219 220 222 222 223 225 225 220 208 198 194 195 194 193 198 205 205 200 198 200 201 202 202 202 204 207 208 210 211 209 204 197 190 181 175 173 173 174 173 167 160 160 167 174 182 185 178 174 177 163 137 113 91 75 60 52 49 49 51 49 43 45 47 41 37 37 30 24 25 28 32 30 26 28 29 26 26 29 28 30 34 35 31 28
219 218 218 220 221 221 223 225 221 210 201 196 195 196 196 197 203 206 204 202 202 203 204 204 201 202 204 206 212 216 214 212 207 198 192 187 182 182 181 178 173 164 162 176 187 189 190 187 183 184 173 147 121 92 74 60 48 45 47 48 43 43 47 44 34 33 32 29 28 25 25 30 33 29 29 29 29 32 31 28 32 35 33 31 29
219 218 218 219 220 221 222 224 221 212 205 201 197 197 200 203 206 207 206 205 204 204 205 205 202 201 202 205 211 217 218 219 215 206 201 197 192 190 186 184 182 171 168 181 193 192 192 193 192 190 181 160 134 98 74 55 45 44 43 43 42 45 46 36 30 36 32 25 28 27 24 28 31 30 31 32 33 34 30 31 35 32 29 33 31
219 217 219 221 221 220 221 222 219 214 209 205 201 200 205 209 209 208 208 207 206 205 205 206 204 203 202 203 209 215 219 220 217 213 208 203 199 197 193 191 189 181 180 188 192 191 194 197 199 198 191 179 160 111 68 43 36 38 38 40 40 38 33 25 26 33 30 25 27 26 26 30 31 32 36 37 36 34 31 37 39 31 32 40 32
215 214 218 221 221 220 221 221 218 215 211 206 202 203 209 212 210 209 209 209 208 206 206 207 205 203 203 202 204 212 218 219 218 215 210 205 203 201 199 200 196 188 188 192 191 192 196 199 201 203 199 195 189 149 66 26 26 27 24 23 20 15 12 12 16 22 24 26 26 24 28 32 33 35 38 36 36 34 34 40 44 40 42 49 40
212 212 216 220 221 221 222 222 219 215 212 208 203 204 209 212 212 214 214 212 210 208 208 208 207 205 204 203 203 208 215 218 218 216 211 207 206 204 203 204 200 195 195 196 195 195 197 200 202 205 205 206 205 198 272 327 357 7 356 346 343 352 360 4 9 13 16 21 25 27 31 33 33 37 40 34 32 35 36 39 43 44 48 49 36
211 212 216 220 223 222 222 224 222 215 212 211 207 206 210 212 213 217 219 218 216 214 211 210 210 207 205 205 205 207 213 218 220 216 214 213 209 206 207 206 203 203 203 200 198 198 200 203 207 210 212 213 208 211 236 272 292 288 294 307 321 340 353 359 2 2 7 16 22 27 34 36 32 37 41 34 33 36 36 38 40 43 48 48 28
211 214 217 221 225 224 222 224 224 217 212 212 210 208 213 216 216 217 220 221 221 219 217 215 214 211 207 208 210 210 212 218 221 217 216 216 212 208 208 206 206 208 205 200 199 201 203 208 212 214 215 211 203 205 215 226 242 259 273 279 288 314 335 345 349 351 359 12 18 24 36 40 37 41 43 41 41 39 33 36 40 41 44 44 29
212 214 217 221 226 227 224 223 225 219 213 213 212 209 215 222 223 221 223 225 223 220 219 218 217 214 208 208 215 219 217 218 221 220 218 217 214 212 211 209 210 210 206 203 205 204 204 209 212 212 212 208 205 209 214 217 221 232 252 269 276 290 313 327 337 345 353 3 10 19 31 37 40 45 46 44 48 44 36 35 37 38 39 38 29
218 218 220 221 226 229 227 225 227 222 214 212 213 211 213 223 227 225 224 226 224 220 218 217 215 214 208 205 213 221 221 220 222 224 221 219 219 217 214 213 214 211 207 207 209 206 205 209 213 213 212 210 212 216 219 219 220 223 230 248 263 272 289 309 325 337 344 350 358 10 22 31 37 44 45 45 50 48 42 38 36 36 36 30 22
225 222 222 224 227 229 228 227 228 227 219 214 214 214 213 218 224 226 225 225 223 220 219 217 214 214 211 209 214 222 224 222 224 227 224 223 223 220 216 215 214 212 211 213 212 209 207 210 214 215 215 213 216 223 224 220 220 221 220 229 247 261 274 294 313 325 328 332 342 355 8 17 27 40 44 44 47 46 41 39 37 36 35 28 20
233 227 225 226 228 231 230 229 231 231 225 219 217 217 217 218 220 223 226 227 225 222 220 219 216 215 215 213 216 222 224 222 224 226 224 224 225 222 219 218 216 214 216 219 218 214 212 213 215 216 216 216 220 227 229 225 222 225 227 233 244 254 263 280 299 311 315 317 327 340 349 356 13 36 42 37 39 42 36 33 34 31 30 30 23
235 232 230 230 231 233 232 231 233 234 230 224 223 223 223 223 221 220 223 228 229 225 223 222 221 219 219 217 217 221 225 224 223 225 224 224 225 224 222 221 220 219 221 222 220 217 216 217 218 218 218 221 227 233 234 230 228 230 234 239 243 247 254 267 282 293 301 304 306 317 328 333 343 4 21 18 25 28 24 24 24 19 18 23 20
235 234 234 233 234 235 235 234 234 236 235 233 232 230 228 228 227 223 223 228 232 231 228 228 227 225 222 220 219 220 224 226 225 225 225 225 226 227 227 227 227 228 229 229 227 223 220 219 220 221 222 226 233 237 235 233 232 233 233 237 240 242 246 255 266 277 286 289 289 297 308 309 308 317 334 339 346 354 1 6 6 3 6 9 7
236 235 235 235 234 235 237 237 236 237 238 238 237 235 234 233 232 229 225 224 231 234 231 230 231 229 223 221 221 220 222 225 226 225 226 226 226 228 230 232 232 233 234 234 233 230 226 224 222 222 225 230 235 236 234 231 232 233 234 235 236 237 241 247 256 265 275 280 283 288 289 288 289 287 277 290 305 311 324 340 349 351 353 355 358
238 235 236 238 238 238 239 240 239 238 238 238 236 235 236 236 236 235 230 225 229 234 231 226 231 233 227 223 223 222 221 222 223 223 224 224 223 224 226 228 230 232 234 234 232 229 229 228 226 225 227 232 236 236 233 231 232 235 235 233 234 235 239 243 249 256 265 271 276 279 278 276 275 271 267 270 278 287 302 321 333 339 340 344 355
240 238 237 239 242 243 243 243 242 240 239 238 236 235 235 236 237 238 235 228 227 232 230 223 228 236 235 228 224 223 222 222 224 225 225 225 225 225 225 225 227 230 233 234 232 229 228 229 228 227 228 233 237 237 234 232 233 235 235 233 234 235 236 238 243 250 256 263 269 272 273 271 268 266 266 266 268 277 288 298 310 324 331 333 339
242 241 240 241 243 244 244 244 243 243 241 240 238 236 236 238 238 238 237 232 227 230 232 228 226 233 238 234 227 224 224 225 226 227 228 229 230 229 228 228 229 231 233 235 234 233 231 228 228 229 231 233 237 238 236 233 234 235 235 234 234 235 234 235 240 245 249 255 261 264 266 267 265 262 261 260 262 269 276 283 294 307 313 314 320
244 242 242 243 243 245 245 244 244 244 244 243 241 239 238 239 239 238 239 237 232 232 235 235 230 231 238 239 234 229 229 230 230 230 231 232 234 234 233 233 233 234 235 235 233 233 232 229 227 230 232 234 237 239 237 234 234 235 235 235 235 235 234 234 237 241 245 251 257 261 262 263 262 259 258 258 259 262 268 277 286 293 298 305 314
244 243 243 243 242 243 244 245 245 245 245 244 242 240 238 239 240 239 238 239 238 236 237 238 236 235 239 242 240 235 234 235 234 234 235 236 236 237 237 237 237 236 237 236 234 233 233 231 229 231 233 234 236 238 237 235 235 235 236 235 235 235 235 235 236 238 241 246 252 257 259 259 258 257 256 257 257 259 263 268 275 283 293 302 309
243 243 244 243 242 242 243 245 245 244 243 243 243 241 238 237 238 239 238 239 240 239 238 239 239 238 241 244 243 239 239 238 237 237 237 238 238 239 239 239 239 238 238 237 236 234 235 234 233 233 234 236 237 238 238 237 236 236 236 236 235 235 235 236 236 236 238 242 247 253 257 257 256 255 255 255 256 258 260 262 268 276 286 295 300
242 242 242 243 243 242 243 244 244 244 244 245 246 245 242 239 238 239 240 239 240 241 242 241 241 240 242 245 244 242 240 240 239 238 238 239 239 239 239 239 239 239 238 237 235 234 235 234 233 233 235 236 237 237 236 235 235 235 235 235 235 235 235 236 238 237 238 240 243 247 252 254 254 253 254 253 253 255 258 260 263 269 277 285 290
241 241 240 241 242 241 240 242 244 245 246 247 246 246 246 243 240 240 240 240 241 242 242 243 243 242 242 244 245 243 241 240 240 239 239 239 239 239 239 239 238 238 237 236 234 233 233 232 231 232 233 234 236 236 235 233 235 235 235 236 237 237 236 237 238 238 237 239 241 244 247 251 251 252 252 252 252 253 255 258 262 265 269 275 279
243 242 241 240 240 240 239 240 241 243 244 245 245 246 247 245 241 239 239 240 242 243 243 245 244 240 237 240 245 246 243 242 241 241 241 240 240 240 240 239 239 238 237 236 234 233 232 230 230 232 233 234 237 237 236 235 237 238 237 238 240 239 237 236 236 236 236 237 239 241 244 247 248 249 249 249 251 251 252 256 260 262 265 269 274
245 244 243 241 240 240 239 240 241 241 242 243 244 246 247 248 247 244 242 242 243 244 246 248 246 239 233 236 245 248 247 245 244 243 242 242 242 241 241 241 240 240 239 237 235 234 232 230 230 233 235 236 238 239 237 238 241 241 240 240 240 238 236 236 236 236 237 237 238 240 243 244 246 247 247 246 248 249 251 254 257 259 262 266 270
247 245 243 242 240 240 240 240 241 242 242 243 244 245 247 250 252 251 246 242 242 243 244 245 246 243 240 241 245 248 249 248 247 246 244 243 243 243 243 243 242 241 240 239 238 236 233 231 231 233 235 237 238 239 238 239 242 243 241 240 240 239 237 238 238 237 237 237 238 241 242 242 244 245 244 244 245 247 248 251 254 256 259 263 265
247 245 243 241 239 239 240 241 242 243 243 242 243 245 247 249 250 251 248 245 243 243 243 243 245 246 247 246 245 246 247 248 248 247 246 244 243 243 243 244 244 243 242 242 240 239 236 233 232 233 234 236 238 239 239 239 241 243 242 241 241 240 240 240 240 239 236 236 238 242 243 242 243 244 243 242 243 244 245 247 251 253 257 260 263
246 245 243 241 240 240 240 242 243 244 244 242 242 244 248 249 249 249 247 245 243 243 244 244 245 247 248 248 246 246 247 247 247 247 247 246 244 243 243 243 244 244 243 243 242 241 239 237 235 234 234 235 236 239 239 239 240 242 242 242 242 242 242 241 241 239 236 235 238 241 242 242 243 243 242 241 241 241 242 244 246 249 253 257 260
245 245 243 242 241 240 240 241 242 244 245 245 244 244 244 245 246 245 243 243 245 246 247 247 247 246 247 247 247 248 249 249 247 247 248 248 247 246 244 243 243 243 243 243 243 242 241 239 236 235 234 234 235 237 239 240 240 242 243 243 243 242 240 240 239 238 236 235 237 239 241 242 243 242 241 241 240 240 240 241 242 245 249 253 257
Height
1545 1545 1546 1546 1546 1546 1547 1547 1547 1547 1547 1547 1547 1547 1547 1547 1546 1545 1545 1544 1544 1543 1543 1542 1542 1542 1541 1540 1540 1540 1540 1540 1539 1539 1538 1537 1537 1536 1535 1534 1533 1532 1532 1531 1531 1530 1530 1529 1529 1528 1528 1528 1527 1527 1526 1526 1525 1525 1525 1525 1524 1523 1523 1524 1524 1523 1522 1522 1522 1521 1521 1520 1518 1518 1517 1516 1515 1515 1514 1514 1514 1513 1513 1512 1510
1544 1544 1545 1545 1545 1546 1546 1547 1547 1546 1546 1547 1547 1547 1547 1546 1545 1545 1544 1544 1543 1543 1542 1542 1542 1542 1541 1540 1540 1540 1540 1540 1539 1539 1538 1538 1537 1536 1535 1534 1534 1533 1532 1532 1531 1530 1530 1530 1529 1529 1528 1528 1527 1527 1526 1526 1526 1525 1525 1525 1524 1524 1523 1524 1525 1524 1524 1523 1523 1522 1521 1519 1518 1517 1517 1516 1516 1515 1514 1514 1514 1513 1512 1512 1510
1543 1543 1544 1545 1545 1545 1546 1546 1546 1546 1546 1546 1546 1546 1546 1546 1545 1544 1544 1543 1543 1543 1542 1542 1542 1541 1541 1540 1540 1541 1541 1540 1540 1539 1538 1537 1537 1536 1535 1535 1534 1533 1533 1532 1532 1531 1531 1530 1530 1529 1529 1528 1528 1527 1527 1526 1526 1526 1525 1525 1525 1524 1524 1524 1525 1525 1525 1524 1523 1522 1521 1520 1519 1518 1517 1517 1517 1516 1515 1514 1514 1513 1512 1511 1510
1542 1542 1543 1544 1544 1544 1545 1546 1545 1545 1545 1545 1545 1545 1545 1545 1545 1544 1543 1543 1543 1542 1542 1543 1542 1541 1541 1541 1541 1541 1541 1540 1539 1539 1538 1537 1537 1536 1536 1535 1535 1534 1533 1533 1532 1532 1531 1531 1530 1530 1529 1529 1528 1528 1527 1527 1527 1526 1526 1526 1526 1525 1525 1524 1525 1525 1525 1524 1523 1523 1522 1521 1520 1519 1519 1518 1517 1517 1516 1515 1514 1513 1512 1511 1510
1541 1541 1542 1543 1543 1544 1544 1545 1545 1545 1545 1545 1545 1545 1545 1545 1544 1543 1543 1543 1542 1542 1542 1542 1542 1542 1542 1542 1542 1541 1540 1540 1539 1539 1538 1537 1537 1536 1536 1536 1535 1534 1534 1534 1533 1533 1532 1531 1531 1530 1530 1529 1529 1529 1528 1528 1527 1527 1527 1527 1527 1526 1526 1526 1526 1526 1526 1525 1524 1524 1523 1522 1521 1521 1520 1519 1518 1518 1517 1516 1515 1514 1513 1512 1511
1540 1540 1541 1541 1542 1543 1543 1544 1545 1544 1545 1544 1544 1544 1544 1544 1544 1543 1542 1542 1542 1542 1542 1542 1542 1542 1542 1542 1541 1541 1540 1540 1539 1539 1538 1538 1537 1537 1537 1536 1536 1535 1535 1535 1534 1534 1533 1532 1532 1531 1531 1530 1530 1529 1529 1529 1529 1528 1528 1528 1528 1528 1528 1528 1528 1527 1527 1526 1526 1525 1524 1523 1522 1522 1521 1520 1519 1519 1518 1518 1517 1515 1514 1513 1511
1538 1539 1540 1540 1541 1542 1543 1544 1544 1544 1544 1544 1544 1544 1544 1544 1543 1542 1542 1542 1542 1542 1542 1542 1542 1542 1542 1542 1541 1541 1540 1540 1540 1539 1539 1538 1538 1538 1537 1537 1537 1536 1536 1536 1535 1535 1534 1534 1533 1533 1532 1532 1531 1531 1530 1530 1530 1530 1530 1529 1529 1529 1530 1530 1530 1529 1528 1527 1527 1526 1525 1524 1523 1523 1522 1521 1520 1519 1518 1518 1517 1516 1515 1514 1512
1537 1538 1538 1539 1540 1541 1542 1543 1544 1543 1544 1543 1543 1544 1543 1543 1542 1542 1542 1542 1542 1542 1542 1542 1542 1542 1542 1542 1541 1541 1541 1541 1540 1540 1540 1539 1539 1539 1538 1538 1538 1538 1537 1537 1537 1536 1536 1535 1534 1534 1533 1533 1533 1532 1532 1532 1532 1532 1531 1531 1531 1531 1531 1531 1531 1530 1529 1529 1528 1528 1527 1526 1524 1524 1523 1521 1520 1519 1518 1518 1517 1517 1516 1515 1512
1535 1536 1537 1538 1539 1540 1541 1542 1543 1543 1543 1543 1543 1543 1543 1542 1542 1542 1542 1542 1542 1542 1542 1542 1542 1542 1542 1542 1542 1541 1541 1541 1541 1540 1540 1540 1540 1540 1539 1539 1539 1539 1539 1538 1538 1538 1537 1536 1536 1535 1535 1534 1534 1534 1534 1533 1533 1533 1532 1532 1532 1531 1531 1532 1532 1531 1531 1530 1530 1529 1528 1527 1525 1524 1523 1522 1521 1520 1519 1518 1518 1517 1517 1516 1513
1534 1535 1536 1536 1538 1539 1540 1541 1542 1542 1542 1543 1543 1542 1542 1542 1542 1542 1542 1542 1542 1542 1542 1542 1542 1543 1543 1542 1542 1542 1542 1542 1541 1541 1541 1540 1541 1541 1540 1540 1540 1540 1540 1539 1539 1539 1538 1538 1537 1537 1536 1536 1536 1535 1535 1535 1534 1534 1534 1533 1533 1533 1532 1532 1532 1532 1532 1531 1530 1530 1529 1528 1526 1525 1524 1523 1522 1521 1520 1519 1518 1517 1517 1516 1515
1532 1533 1534 1535 1536 1537 1538 1539 1541 1541 1542 1542 1542 1542 1542 1542 1541 1541 1541 1542 1542 1542 1542 1542 1542 1543 1543 1542 1542 1542 1542 1542 1542 1541 1541 1541 1541 1541 1541 1541 1541 1541 1541 1540 1540 1540 1539 1539 1538 1538 1538 1537 1537 1537 1537 1536 1536 1536 1535 1535 1534 1534 1533 1533 1533 1533 1533 1532 1531 1531 1530 1529 1528 1527 1525 1524 1523 1521 1520 1520 1519 1518 1517 1517 1515
1530 1531 1533 1533 1534 1535 1537 1538 1539 1540 1541 1541 1541 1541 1541 1541 1541 1541 1541 1541 1542 1542 1542 1542 1542 1543 1543 1543 1542 1542 1543 1542 1542 1542 1542 1542 1541 1542 1542 1542 1542 1541 1541 1541 1541 1540 1540 1540 1540 1539 1539 1539 1539 1539 1538 1538 1538 1537 1537 1537 1536 1536 1535 1534 1534 1533 1533 1533 1532 1531 1530 1530 1529 1528 1526 1525 1523 1521 1521 1520 1519 1518 1518 1517 1516
1528 1529 1531 1532 1533 1534 1535 1536 1538 1539 1540 1540 1540 1540 1540 1541 1541 1541 1541 1541 1541 1541 1542 1542 1542 1543 1543 1543 1543 1543 1543 1542 1542 1542 1542 1542 1542 1542 1542 1542 1542 1542 1542 1541 1541 1541 1541 1541 1541 1541 1541 1540 1540 1540 1540 1540 1539 1539 1539 1538 1538 1537 1536 1536 1535 1534 1534 1534 1533 1532 1531 1531 1530 1528 1527 1525 1524 1523 1522 1521 1520 1519 1518 1517 1516
1526 1527 1529 1530 1531 1532 1533 1534 1536 1538 1538 1538 1538 1539 1539 1540 1540 1540 1540 1541 1541 1541 1541 1542 1542 1542 1543 1543 1543 1543 1543 1542 1542 1542 1542 1542 1542 1542 1543 1543 1542 1542 1542 1542 1542 1542 1542 1542 1542 1542 1542 1541 1541 1541 1541 1541 1541 1540 1540 1540 1539 1538 1537 1536 1536 1535 1535 1534 1534 1533 1533 1532 1530 1529 1528 1526 1525 1524 1523 1522 1520 1519 1518 1517 1516
1523 1525 1527 1528 1528 1530 1531 1532 1534 1536 1536 1537 1537 1538 1538 1538 1539 1539 1540 1540 1541 1541 1541 1542 1542 1542 1542 1542 1542 1542 1542 1542 1542 1542 1542 1542 1542 1542 1543 1543 1543 1543 1543 1543 1543 1543 1543 1543 1543 1543 1543 1543 1542 1542 1542 1542 1542 1542 1542 1541 1540 1539 1538 1537 1536 1536 1536 1535 1535 1534 1533 1533 1531 1530 1529 1527 1526 1524 1522 1522 1521 1520 1520 1519 1519
1521 1522 1524 1525 1526 1528 1529 1530 1532 1533 1534 1535 1536 1536 1537 1537 1538 1538 1539 1540 1540 1540 1541 1541 1541 1542 1542 1542 1542 1542 1542 1542 1542 1542 1542 1542 1542 1543 1543 1543 1543 1543 1543 1543 1543 1543 1543 1543 1544 1544 1543 1543 1543 1543 1543 1543 1543 1543 1542 1542 1541 1540 1539 1538 1537 1537 1537 1536 1536 1535 1534 1533 1531 1530 1528 1527 1526 1524 1523 1523 1522 1521 1522 1522 1521
1518 1519 1521 1522 1524 1525 1527 1528 1529 1531 1532 1533 1534 1535 1535 1536 1537 1537 1538 1539 1539 1540 1540 1541 1541 1541 1541 1542 1542 1542 1542 1542 1542 1542 1542 1542 1542 1543 1544 1544 1544 1544 1544 1544 1544 1544 1543 1543 1544 1544 1544 1544 1544 1544 1544 1544 1544 1544 1543 1542 1541 1540 1539 1539 1538 1538 1537 1536 1536 1535 1533 1532 1531 1530 1528 1527 1526 1524 1523 1523 1522 1521 1522 1522 1521
1515 1516 1518 1520 1521 1523 1524 1526 1527 1529 1530 1531 1532 1533 1533 1534 1535 1536 1537 1537 1538 1539 1540 1540 1540 1541 1541 1541 1541 1541 1541 1542 1542 1542 1542 1542 1542 1543 1544 1545 1544 1544 1544 1544 1544 1544 1544 1544 1544 1544 1544 1544 1544 1544 1544 1544 1544 1544 1543 1543 1542 1541 1540 1539 1538 1538 1537 1536 1535 1534 1533 1532 1531 1529 1528 1527 1526 1525 1524 1523 1521 1521 1523 1522 1521
1512 1513 1515 1517 1519 1520 1522 1524 1525 1526 1528 1529 1531 1531 1532 1533 1534 1534 1535 1536 1537 1538 1539 1539 1540 1540 1540 1540 1541 1541 1541 1541 1542 1542 1542 1542 1542 1543 1545 1545 1544 1544 1544 1544 1544 1544 1544 1545 1544 1544 1545 1545 1545 1544 1544 1544 1544 1543 1543 1543 1542 1541 1540 1539 1539 1538 1537 1536 1535 1534 1533 1531 1530 1529 1528 1527 1526 1525 1524 1523 1521 1521 1522 1522 1521
1509 1511 1513 1515 1517 1518 1520 1521 1522 1524 1526 1528 1529 1530 1530 1531 1532 1533 1534 1535 1536 1537 1538 1538 1539 1539 1539 1540 1540 1540 1541 1541 1541 1541 1541 1542 1542 1542 1544 1545 1544 1544 1545 1545 1544 1544 1545 1545 1545 1545 1545 1544 1544 1544 1544 1544 1543 1543 1543 1543 1542 1541 1540 1539 1539 1538 1537 1536 1535 1534 1533 1532 1530 1529 1529 1527 1526 1525 1524 1523 1522 1521 1521 1521 1521
1506 1509 1511 1512 1514 1515 1517 1519 1520 1522 1524 1526 1527 1529 1529 1529 1530 1531 1533 1533 1534 1535 1536 1537 1538 1538 1538 1539 1539 1540 1540 1540 1540 1541 1541 1541 1541 1541 1543 1544 1544 1544 1544 1545 1545 1545 1544 1544 1544 1545 1544 1544 1544 1544 1544 1544 1543 1543 1543 1542 1542 1541 1540 1539 1539 1538 1537 1537 1536 1535 1534 1533 1532 1531 1529 1528 1527 1526 1525 1523 1522 1521 1521 1521 1520
1503 1506 1508 1510 1511 1513 1515 1517 1518 1520 1522 1523 1525 1527 1528 1528 1529 1530 1531 1532 1532 1534 1535 1535 1536 1536 1537 1538 1538 1539 1539 1539 1540 1540 1540 1540 1541 1541 1541 1542 1543 1544 1544 1545 1545 1544 1544 1544 1544 1544 1544 1544 1544 1544 1544 1543 1543 1543 1542 1542 1541 1541 1540 1540 1540 1539 1539 1539 1538 1537 1535 1534 1533 1531 1530 1528 1527 1526 1525 1524 1523 1522 1521 1521 1520
1500 1503 1505 1507 1509 1511 1512 1514 1516 1517 1519 1521 1523 1525 1526 1526 1527 1528 1529 1530 1530 1532 1533 1534 1535 1535 1535 1536 1537 1537 1538 1538 1538 1539 1539 1539 1540 1540 1540 1541 1541 1542 1544 1544 1544 1543 1543 1543 1544 1544 1544 1544 1544 1543 1543 1543 1543 1543 1542 1541 1541 1541 1540 1540 1540 1540 1540 1539 1538 1536 1535 1534 1533 1531 1530 1529 1528 1527 1526 1525 1524 1523 1522 1521 1520
1497 1500 1502 1504 1506 1508 1510 1511 1513 1515 1517 1519 1521 1522 1524 1524 1525 1526 1527 1528 1528 1530 1531 1532 1533 1533 1534 1535 1535 1536 1536 1537 1537 1538 1538 1538 1539 1539 1540 1540 1540 1541 1542 1543 1543 1542 1542 1543 1543 1544 1543 1543 1543 1543 1543 1543 1543 1542 1542 1542 1541 1541 1540 1541 1541 1540 1539 1538 1537 1536 1535 1534 1532 1531 1530 1529 1528 1527 1526 1525 1524 1523 1522 1522 1521
1494 1497 1499 1501 1503 1505 1507 1509 1511 1512 1514 1516 1518 1520 1521 1522 1523 1524 1524 1525 1526 1527 1528 1529 1530 1531 1532 1533 1533 1534 1535 1535 1536 1536 1537 1537 1538 1538 1538 1539 1540 1540 1541 1542 1541 1541 1542 1542 1543 1543 1543 1543 1543 1543 1543 1543 1543 1542 1542 1541 1541 1541 1541 1541 1540 1540 1539 1538 1537 1536 1535 1533 1532 1531 1530 1529 1528 1527 1526 1526 1525 1524 1523 1523 1522
1492 1494 1497 1498 1500 1503 1505 1507 1508 1510 1512 1514 1515 1517 1518 1519 1520 1521 1522 1523 1524 1525 1526 1527 1528 1529 1530 1531 1531 1532 1533 1533 1534 1534 1535 1536 1536 1537 1537 1538 1538 1539 1539 1540 1540 1540 1541 1541 1542 1542 1542 1542 1542 1542 1542 1542 1542 1542 1541 1541 1541 1541 1541 1541 1540 1539 1539 1538 1537 1536 1535 1534 1532 1531 1530 1529 1528 1528 1527 1526 1526 1525 1524 1523 1523
1489 1491 1494 1495 1498 1500 1502 1504 1506 1507 1509 1511 1513 1515 1516 1517 1518 1519 1520 1521 1522 1523 1524 1525 1526 1527 1528 1529 1530 1530 1530 1531 1532 1532 1533 1534 1535 1535 1536 1536 1537 1538 1538 1538 1539 1539 1540 1540 1541 1541 1541 1542 1542 1542 1542 1542 1541 1541 1541 1541 1541 1541 1540 1540 1539 1539 1538 1537 1536 1535 1534 1533 1532 1531 1531 1530 1529 1529 1528 1527 1526 1526 1525 1525 1525
1487 1489 1491 1493 1495 1497 1499 1501 1502 1504 1506 1508 1510 1512 1513 1514 1515 1516 1516 1518 1519 1520 1521 1522 1523 1525 1526 1527 1528 1528 1528 1529 1530 1530 1531 1532 1533 1534 1534 1535 1536 1536 1537 1537 1538 1539 1539 1540 1540 1540 1540 1541 1541 1541 1541 1541 1541 1541 1541 1541 1540 1540 1539 1539 1538 1538 1537 1537 1536 1535 1534 1533 1533 1532 1531 1531 1530 1529 1528 1527 1527 1526 1525 1525 1526
1485 1487 1488 1490 1492 1494 1496 1497 1499 1501 1503 1505 1507 1508 1509 1510 1512 1513 1514 1515 1516 1518 1519 1520 1521 1522 1524 1525 1526 1526 1527 1527 1528 1529 1530 1530 1531 1532 1533 1534 1534 1535 1536 1536 1537 1538 1538 1538 1539 1539 1539 1540 1540 1541 1541 1541 1540 1540 1540 1540 1540 1539 1539 1539 1538 1537 1537 1536 1535 1535 1534 1533 1533 1532 1532 1531 1530 1529 1528 1528 1527 1526 1526 1526 1527
1482 1484 1486 1487 1489 1491 1493 1494 1496 1498 1500 1501 1503 1505 1506 1507 1509 1510 1511 1512 1514 1515 1517 1518 1519 1520 1522 1523 1523 1524 1525 1526 1526 1527 1528 1529 1530 1531 1531 1532 1533 1534 1534 1535 1536 1536 1537 1537 1538 1538 1539 1539 1540 1540 1541 1540 1540 1540 1539 1539 1539 1539 1538 1538 1537 1537 1536 1536 1535 1534 1534 1533 1533 1532 1531 1531 1530 1529 1529 1528 1527 1526 1526 1526 1526
1479 1480 1482 1484 1486 1488 1490 1491 1493 1495 1497 1498 1500 1502 1503 1503 1505 1506 1508 1509 1511 1513 1514 1516 1517 1518 1519 1521 1521 1522 1523 1524 1524 1526 1527 1527 1528 1529 1530 1531 1531 1532 1533 1534 1534 1535 1536 1536 1537 1538 1538 1539 1539 1539 1539 1539 1539 1539 1539 1538 1538 1538 1538 1537 1537 1536 1535 1535 1534 1534 1533 1533 1532 1531 1531 1530 1530 1529 1529 1528 1527 1527 1526 1526 1526
1476 1477 1479 1481 1482 1484 1487 1488 1489 1491 1493 1495 1496 1498 1499 1500 1501 1503 1504 1506 1508 1510 1511 1512 1514 1515 1516 1518 1519 1519 1520 1521 1522 1524 1525 1526 1527 1527 1528 1529 1530 1531 1532 1532 1533 1533 1534 1536 1536 1537 1537 1537 1538 1537 1538 1538 1538 1538 1538 1537 1537 1537 1536 1536 1536 1535 1535 1534 1534 1533 1532 1532 1531 1531 1530 1530 1529 1529 1529 1528 1527 1527 1526 1526 1525
1473 1474 1475 1477 1478 1480 1483 1484 1486 1487 1489 1491 1492 1494 1495 1496 1497 1499 1500 1502 1504 1506 1507 1509 1510 1511 1513 1515 1515 1516 1517 1519 1520 1521 1523 1524 1525 1526 1527 1527 1528 1529 1530 1530 1531 1531 1533 1534 1535 1535 1535 1535 1536 1535 1536 1536 1536 1536 1537 1536 1536 1535 1535 1535 1534 1534 1534 1533 1533 1532 1532 1531 1531 1530 1530 1529 1529 1529 1528 1528 1527 1527 1526 1526 1525
1469 1470 1472 1473 1474 1476 1478 1480 1482 1483 1485 1487 1488 1490 1491 1493 1494 1495 1496 1498 1500 1502 1503 1505 1506 1507 1509 1511 1512 1513 1514 1516 1518 1519 1520 1522 1523 1524 1524 1525 1526 1527 1527 1528 1529 1529 1530 1532 1533 1533 1533 1533 1533 1533 1533 1534 1534 1534 1535 1535 1534 1534 1534 1534 1533 1533 1532 1532 1532 1531 1531 1530 1530 1529 1529 1529 1528 1528 1528 1527 1527 1526 1526 1525 1525
1465 1467 1468 1469 1471 1472 1474 1476 1478 1479 1481 1483 1484 1486 1487 1489 1491 1492 1493 1494 1496 1498 1499 1501 1502 1504 1505 1507 1509 1510 1512 1513 1515 1516 1518 1519 1520 1521 1522 1522 1523 1524 1524 1525 1526 1527 1528 1529 1530 1530 1530 1530 1530 1531 1531 1531 1532 1532 1533 1533 1532 1532 1532 1532 1532 1532 1531 1531 1531 1530 1530 1529 1529 1528 1528 1528 1527 1527 1527 1526 1526 1525 1525 1524 1524
1461 1462 1464 1465 1466 1468 1470 1472 1473 1475 1476 1478 1480 1481 1483 1485 1486 1488 1490 1491 1492 1494 1496 1497 1499 1501 1502 1504 1506 1507 1509 1510 1512 1513 1514 1516 1517 1518 1518 1519 1520 1521 1522 1522 1523 1524 1525 1526 1527 1527 1528 1527 1527 1528 1529 1529 1529 1530 1530 1531 1531 1531 1531 1531 1531 1530 1530 1530 1529 1529 1528 1528 1528 1527 1527 1527 1526 1526 1526 1525 1525 1524 1524 1523 1523
1456 1458 1459 1460 1462 1463 1465 1467 1468 1470 1472 1473 1475 1477 1478 1480 1482 1484 1486 1488 1489 1490 1493 1494 1494 1496 1498 1500 1502 1504 1505 1507 1509 1510 1511 1512 1513 1514 1515 1516 1517 1518 1519 1519 1520 1521 1522 1523 1524 1524 1524 1524 1525 1525 1526 1526 1527 1527 1528 1528 1529 1529 1529 1529 1529 1529 1529 1528 1528 1527 1527 1527 1526 1526 1526 1525 1525 1525 1524 1524 1524 1523 1523 1522 1522
1451 1453 1454 1455 1457 1459 1460 1462 1463 1465 1467 1469 1470 1472 1473 1475 1477 1479 1482 1484 1485 1486 1489 1490 1489 1490 1493 1495 1497 1500 1501 1502 1504 1505 1506 1507 1508 1509 1511 1512 1513 1514 1515 1516 1517 1518 1519 1519 1520 1521 1521 1521 1521 1522 1523 1523 1524 1525 1525 1526 1527 1527 1527 1527 1527 1527 1527 1527 1526 1526 1526 1525 1525 1525 1524 1524 1524 1523 1523 1523 1522 1522 1521 1521 1521
1446 1448 1449 1451 1452 1454 1456 1457 1458 1460 1462 1463 1465 1467 1468 1470 1472 1474 1477 1479 1480 1482 1484 1485 1485 1486 1488 1491 1493 1494 1496 1497 1498 1499 1500 1501 1503 1504 1506 1508 1509 1510 1511 1512 1513 1514 1515 1516 1516 1517 1518 1518 1518 1519 1520 1520 1521 1522 1522 1523 1524 1524 1525 1525 1525 1525 1525 1525 1525 1524 1524 1524 1523 1523 1523 1522 1522 1522 1522 1521 1521 1521 1520 1520 1519
1442 1443 1444 1446 1447 1449 1450 1452 1453 1455 1456 1458 1460 1461 1462 1464 1466 1469 1471 1474 1476 1476 1478 1480 1481 1482 1483 1485 1486 1488 1490 1491 1492 1494 1495 1497 1498 1500 1502 1503 1505 1506 1507 1508 1509 1510 1511 1512 1513 1513 1514 1514 1515 1515 1516 1517 1518 1519 1519 1520 1521 1522 1522 1523 1523 1523 1523 1523 1523 1523 1522 1522 1522 1522 1521 1521 1521 1520 1520 1520 1519 1519 1519 1519 1518
1436 1438 1439 1440 1442 1444 1445 1446 1447 1449 1451 1452 1454 1455 1456 1458 1461 1463 1465 1468 1470 1471 1472 1474 1476 1477 1478 1479 1481 1484 1486 1486 1487 1489 1491 1492 1494 1496 1497 1499 1501 1502 1503 1504 1505 1506 1507 1508 1509 1509 1510 1511 1511 1512 1513 1514 1515 1515 1516 1517 1518 1519 1519 1520 1520 1521 1521 1521 1521 1521 1521 1520 1520 1520 1520 1519 1519 1519 1519 1518 1518 1518 1517 1517 1516
1430 1432 1434 1435 1437 1438 1439 1440 1441 1444 1445 1447 1448 1449 1450 1452 1454 1457 1460 1462 1464 1466 1467 1469 1471 1473 1473 1474 1477 1480 1482 1483 1484 1485 1486 1488 1489 1491 1493 1495 1497 1498 1499 1500 1501 1502 1503 1504 1505 1506 1506 1507 1508 1508 1509 1510 1511 1512 1513 1514 1515 1516 1516 1517 1517 1518 1518 1518 1519 1519 1519 1519 1518 1518 1518 1518 1517 1517 1517 1517 1516 1516 1516 1515 1515
1424 1426 1428 1429 1431 1432 1433 1434 1436 1437 1438 1440 1441 1443 1445 1446 1448 1450 1453 1456 1457 1459 1461 1463 1466 1467 1468 1469 1472 1475 1477 1478 1479 1480 1481 1483 1484 1486 1488 1490 1492 1493 1495 1496 1497 1498 1499 1500 1501 1502 1502 1503 1504 1505 1505 1506 1507 1508 1509 1510 1511 1512 1513 1514 1514 1515 1515 1515 1516 1516 1516 1516 1516 1516 1516 1516 1516 1516 1515 1515 1515 1514 1514 1514 1513
1419 1420 1422 1423 1425 1427 1428 1429 1430 1431 1432 1434 1436 1438 1439 1441 1443 1445 1447 1449 1451 1453 1455 1457 1460 1462 1463 1464 1466 1468 1470 1471 1473 1474 1475 1477 1478 1480 1482 1485 1486 1488 1490 1491 1493 1494 1495 1495 1497 1498 1499 1499 1500 1501 1502 1503 1503 1504 1505 1506 1506 1508 1509 1510 1511 1512 1512 1513 1513 1513 1514 1514 1514 1514 1514 1514 1514 1514 1513 1513 1513 1513 1512 1512 1512
1413 1414 1415 1417 1419 1420 1422 1423 1425 1426 1427 1429 1431 1432 1433 1435 1437 1439 1441 1443 1445 1447 1449 1451 1454 1456 1457 1457 1458 1461 1463 1465 1466 1468 1469 1471 1472 1474 1476 1479 1481 1482 1484 1486 1488 1489 1490 1491 1492 1493 1494 1495 1495 1496 1498 1499 1499 1500 1501 1502 1502 1503 1505 1506 1507 1508 1509 1509 1510 1510 1511 1511 1511 1511 1511 1512 1512 1512 1511 1511 1511 1511 1511 1510 1510
1408 1409 1410 1411 1413 1414 1416 1418 1419 1420 1422 1423 1425 1426 1427 1427 1430 1433 1436 1437 1439 1441 1443 1445 1447 1450 1451 1451 1451 1454 1456 1459 1460 1461 1463 1465 1467 1469 1471 1473 1475 1476 1478 1480 1482 1483 1484 1486 1487 1488 1489 1490 1491 1492 1494 1495 1495 1496 1497 1498 1498 1500 1501 1502 1502 1503 1505 1506 1507 1507 1507 1508 1508 1508 1509 1509 1509 1509 1509 1509 1509 1508 1509 1508 1508
1403 1403 1404 1406 1407 1408 1410 1412 1413 1415 1417 1418 1419 1420 1421 1421 1423 1427 1430 1432 1433 1435 1437 1439 1440 1442 1445 1446 1446 1447 1449 1452 1453 1455 1457 1459 1461 1463 1465 1467 1468 1470 1472 1474 1476 1477 1479 1481 1482 1483 1484 1485 1487 1488 1490 1490 1491 1492 1493 1494 1494 1495 1496 1497 1498 1499 1501 1502 1503 1504 1504 1505 1505 1505 1505 1506 1506 1506 1506 1506 1506 1506 1506 1506 1506
1398 1398 1399 1400 1402 1403 1404 1406 1408 1410 1411 1412 1413 1415 1416 1416 1417 1420 1424 1426 1427 1428 1431 1432 1432 1433 1437 1441 1441 1441 1443 1445 1447 1449 1451 1453 1455 1457 1459 1460 1462 1464 1465 1468 1470 1472 1474 1476 1476 1477 1479 1481 1482 1483 1485 1486 1486 1487 1488 1489 1490 1490 1492 1493 1494 1496 1497 1499 1500 1500 1501 1501 1502 1502 1502 1503 1503 1503 1504 1504 1504 1504 1504 1504 1504
1393 1393 1394 1395 1396 1397 1399 1400 1402 1404 1405 1407 1409 1410 1411 1412 1413 1414 1417 1419 1420 1421 1423 1425 1425 1426 1429 1433 1434 1435 1436 1438 1440 1442 1444 1446 1448 1451 1452 1454 1456 1457 1459 1461 1463 1465 1468 1470 1471 1472 1474 1476 1476 1478 1479 1481 1481 1482 1483 1484 1485 1486 1488 1489 1490 1492 1493 1495 1496 1496 1497 1498 1498 1499 1499 1499 1500 1500 1500 1501 1501 1501 1502 1502 1502
1387 1388 1389 1390 1391 1392 1394 1395 1397 1398 1400 1402 1404 1406 1407 1407 1408 1409 1411 1412 1414 1415 1416 1417 1419 1421 1423 1425 1427 1428 1429 1431 1433 1435 1437 1439 1442 1444 1446 1448 1449 1450 1452 1454 1456 1459 1461 1463 1465 1467 1468 1470 1471 1472 1473 1475 1475 1476 1477 1479 1480 1483 1485 1486 1486 1488 1490 1491 1492 1493 1493 1494 1495 1495 1496 1496 1496 1497 1497 1498 1498 1499 1499 1499 1499
1382 1383 1384 1385 1386 1388 1389 1390 1391 1392 1394 1396 1398 1400 1401 1402 1403 1404 1405 1407 1408 1409 1410 1411 1413 1415 1416 1418 1419 1421 1422 1423 1425 1428 1430 1432 1435 1437 1439 1441 1442 1444 1446 1448 1450 1452 1454 1456 1458 1460 1462 1464 1465 1466 1467 1468 1469 1470 1472 1474 1476 1478 1480 1481 1482 1484 1485 1487 1488 1489 1489 1490 1491 1491 1492 1493 1493 1493 1494 1494 1495 1495 1496 1496 1497